Wind_Speed
56 54 54 56 59 60 60 61 61 60 57 55 55 55 55 56 57 58 59 61 62 63 63 63 63 63 63 63 63 63 63 64 64 64 63 62 60 59 58 56 57 57
60 56 54 56 58 60 60 61 61 62 60 59 57 57 56 56 57 57 58 59 61 63 64 65 64 64 64 64 64 65 65 65 65 65 64 63 62 61 60 59 59 60
61 57 55 57 58 60 61 60 61 61 62 61 60 59 59 58 57 57 58 59 60 62 64 65 65 65 65 65 65 65 66 66 66 66 65 65 65 64 63 62 62 62
58 55 55 57 59 61 62 62 62 63 63 62 61 60 60 59 58 57 58 59 60 62 63 64 65 65 65 65 66 66 66 66 67 67 67 67 66 65 64 64 64 63
56 55 55 58 59 60 62 63 64 65 65 64 63 62 61 59 58 57 57 58 60 62 63 65 65 65 65 65 66 66 67 67 67 68 68 67 66 65 65 66 65 65
56 56 57 59 60 61 61 63 64 66 66 66 66 65 64 62 60 59 59 60 61 62 64 65 66 67 67 67 66 66 67 67 67 68 67 66 66 66 67 67 67 66
57 58 59 60 61 62 63 64 65 66 67 69 69 69 68 66 64 63 63 64 65 65 66 67 68 68 68 68 67 67 67 67 67 67 67 67 67 68 68 69 68 67
58 60 62 62 62 62 63 64 65 66 68 69 71 73 73 71 69 67 68 70 70 69 68 69 69 69 69 68 68 68 69 69 68 67 67 68 68 69 69 70 70 69
60 61 63 64 64 65 66 67 68 68 69 71 72 74 75 76 75 74 73 75 75 74 72 70 70 70 70 70 70 70 71 71 71 71 71 70 70 70 70 71 71 71
63 63 64 66 67 68 69 71 72 72 72 73 73 74 76 78 79 79 79 79 78 76 75 74 73 72 72 72 72 73 74 74 74 75 75 75 74 73 72 72 72 72
69 69 69 71 72 73 73 73 75 76 76 76 75 76 77 78 79 80 81 80 79 78 77 76 76 75 74 73 73 74 75 77 77 77 77 77 77 76 75 74 73 72
79 79 78 78 78 79 79 77 77 78 79 79 79 78 77 77 77 78 78 78 78 79 79 79 79 78 77 76 76 75 76 77 78 79 79 78 78 79 78 77 76 73
84 84 84 84 83 83 82 81 80 80 81 82 82 79 78 77 77 77 77 77 78 80 81 82 82 81 79 79 78 78 77 77 78 79 80 79 79 79 80 79 77 75
82 83 83 84 83 83 82 81 81 82 84 85 85 84 83 83 82 81 80 79 80 81 82 83 84 84 83 82 82 82 82 81 80 80 80 80 80 80 80 79 77 75
83 82 82 81 81 81 80 80 80 81 84 85 87 87 88 88 89 88 87 86 85 84 84 84 85 85 86 86 85 85 85 85 84 84 84 83 82 81 81 80 79 77
88 86 85 83 82 82 81 81 80 80 81 83 84 86 86 88 89 90 91 91 90 90 90 90 90 89 89 89 89 88 87 87 86 86 86 86 83 80 79 79 78 77
90 89 88 88 87 87 86 86 85 85 84 84 84 84 85 86 87 89 90 91 91 92 93 95 95 94 92 92 93 93 92 90 89 88 87 87 84 80 76 75 75 74
92 93 93 93 92 91 90 89 90 90 90 90 89 88 88 87 88 89 89 90 91 91 92 94 95 96 96 95 95 96 95 93 92 91 89 87 85 82 78 75 74 74
97 98 98 99 98 97 95 93 91 91 92 92 92 91 91 90 89 89 89 90 91 92 93 93 93 94 96 96 95 95 95 94 93 92 91 89 87 85 82 79 76 75
103 103 104 104 103 103 102 100 98 95 94 93 94 93 93 92 91 90 89 90 91 92 93 94 94 94 95 95 94 94 95 96 94 92 91 90 89 88 86 83 80 76
108 108 108 108 106 105 105 104 104 102 101 99 98 97 97 96 95 94 93 93 93 93 93 94 95 96 97 96 96 96 97 98 97 96 95 93 92 90 88 86 83 78
108 109 109 108 108 107 106 105 105 105 105 105 104 103 102 101 100 98 97 97 97 97 97 95 95 97 99 99 99 99 99 99 98 98 98 97 95 93 91 89 87 84
104 104 105 105 106 106 106 106 106 104 104 105 105 106 105 105 104 102 100 98 99 100 100 98 97 97 99 100 100 101 101 101 100 99 99 97 94 92 91 90 89 87
98 99 99 100 101 102 103 104 104 104 103 103 104 104 104 104 104 104 102 100 98 99 100 100 98 98 99 100 101 101 102 102 102 101 101 98 95 92 90 89 88 87
94 95 96 96 97 98 99 99 100 101 101 102 102 102 101 101 102 102 101 100 97 97 99 100 100 100 101 102 102 103 103 103 102 101 100 99 97 96 94 94 92 90
91 92 93 94 95 96 96 97 97 97 98 99 99 99 100 100 100 100 99 98 97 96 96 97 99 101 102 103 103 102 103 103 103 101 99 97 97 96 96 96 94 92
Wind_Direction
283 279 274 271 269 268 268 269 269 269 268 267 265 265 264 264 264 264 265 266 266 266 266 265 264 263 261 260 259 258 257 257 258 258 258 258 257 255 253 251 250 250
282 278 274 270 267 266 265 265 265 266 266 266 265 265 264 264 264 264 264 264 265 266 267 266 265 263 262 261 260 259 258 257 257 257 258 257 256 255 253 251 250 250
278 274 272 270 266 264 264 264 263 263 263 263 264 264 263 264 264 264 264 264 264 265 266 267 266 265 263 262 261 259 259 258 257 256 255 255 255 253 251 250 250 250
270 267 265 266 264 261 262 263 263 263 263 262 262 262 262 262 263 263 263 263 263 263 264 265 266 266 265 264 263 261 260 259 258 257 256 255 254 253 251 250 250 251
264 261 258 259 259 259 260 262 263 264 264 263 262 260 260 260 260 260 261 262 262 263 263 264 264 265 266 266 265 264 263 261 260 259 259 258 256 254 252 251 251 251
259 257 255 253 255 256 258 260 261 263 265 265 264 262 260 259 258 259 260 262 262 263 263 263 264 264 265 265 265 265 264 264 263 262 261 260 258 255 253 253 253 253
255 254 252 250 251 253 255 257 258 260 262 264 265 264 262 261 261 263 266 268 268 266 265 264 264 264 264 264 264 264 264 263 263 263 262 261 259 257 256 255 255 255
253 251 250 249 250 252 255 255 256 257 258 260 262 264 265 265 265 268 271 273 272 270 267 265 264 264 264 263 263 262 261 261 261 260 260 259 259 258 257 257 256 256
253 252 250 250 251 253 254 254 253 253 255 257 258 259 261 264 266 268 270 271 271 270 267 265 264 263 263 263 262 261 261 260 259 258 258 257 257 257 257 257 256 256
252 253 253 254 255 256 256 256 253 251 252 254 255 256 257 258 261 264 267 268 268 267 266 266 265 263 262 262 261 261 261 260 259 258 258 257 256 256 256 256 256 256
256 256 257 258 259 260 261 261 259 256 253 252 255 258 258 257 257 259 262 265 265 264 264 265 265 265 264 263 262 261 260 260 259 258 258 257 257 256 256 255 256 256
262 262 261 261 261 262 262 263 262 261 259 256 256 258 258 257 256 257 258 260 261 261 262 263 264 264 265 265 264 262 261 260 259 259 258 257 256 256 256 256 256 256
265 265 265 264 263 262 262 262 262 261 260 258 258 257 257 256 256 256 257 258 258 258 259 261 262 263 263 264 264 263 262 261 259 258 258 257 256 255 255 255 256 257
266 266 266 266 265 264 263 262 261 260 259 258 257 256 256 257 257 257 257 258 257 257 258 258 260 262 262 263 263 262 262 261 260 259 258 258 257 256 256 257 257 258
266 266 266 266 266 266 265 264 262 261 259 259 258 258 258 258 258 258 258 257 257 257 257 257 257 259 261 262 262 262 262 261 261 260 260 259 259 259 260 260 260 261
265 265 265 265 265 265 265 264 263 262 260 259 259 259 259 259 259 259 259 258 257 257 257 257 257 258 259 260 262 262 262 262 261 261 261 261 262 262 262 262 262 262
266 266 265 264 264 264 264 263 263 262 261 260 259 258 258 258 259 259 259 259 259 258 257 257 258 258 258 258 259 261 262 262 261 261 262 262 263 263 262 261 261 262
271 270 269 268 266 264 263 263 262 262 262 261 259 258 258 257 257 258 259 259 259 259 259 258 258 259 259 259 260 260 261 262 261 261 261 261 262 263 262 261 260 262
272 273 273 273 271 269 267 264 262 261 260 260 259 258 257 257 257 257 258 258 258 258 258 258 258 258 258 259 260 261 262 262 262 262 262 261 261 261 261 261 261 261
270 271 272 272 272 271 271 269 266 263 260 259 258 258 258 257 257 257 258 258 258 258 258 258 258 258 257 257 258 260 260 261 261 261 261 262 261 261 261 260 260 259
269 269 270 270 270 269 269 269 269 267 265 262 259 258 258 258 258 259 259 259 259 259 259 258 258 257 257 257 257 258 258 259 259 259 259 260 260 261 261 260 259 258
270 270 270 269 268 268 267 267 266 266 266 265 263 261 259 259 259 259 259 259 260 260 260 260 258 257 256 257 256 256 257 257 258 258 258 258 258 258 259 260 260 258
272 271 270 270 269 268 267 266 265 264 264 264 264 264 262 261 260 260 259 259 258 259 260 260 258 256 256 256 256 256 256 256 256 257 258 259 259 258 258 259 260 260
273 273 272 271 270 269 268 267 265 264 263 263 262 263 263 263 262 260 259 258 257 256 256 256 256 255 254 254 255 255 256 256 256 256 257 259 260 261 261 261 261 261
275 274 274 273 272 271 270 269 267 266 265 264 262 262 261 261 261 261 260 259 257 256 254 253 252 252 252 252 253 254 255 256 256 256 256 256 257 258 259 259 260 261
274 274 274 274 273 273 272 271 270 269 267 266 265 263 262 261 260 260 260 259 258 257 255 254 252 251 250 251 252 252 253 255 256 257 258 257 256 256 256 256 256 258
Height
5692 5692 5691 5691 5690 5689 5688 5688 5687 5687 5687 5687 5688 5688 5688 5689 5689 5690 5690 5690 5691 5690 5690 5689 5688 5688 5687 5687 5688 5688 5689 5689 5689 5689 5689 5690 5690 5690 5690 5690 5689 5688
5683 5683 5682 5682 5681 5680 5680 5679 5679 5679 5678 5678 5679 5679 5679 5679 5680 5681 5682 5682 5683 5683 5682 5681 5681 5680 5680 5679 5679 5679 5679 5680 5680 5680 5681 5682 5682 5682 5683 5682 5682 5681
5675 5674 5673 5673 5672 5671 5671 5671 5670 5670 5669 5669 5670 5670 5670 5671 5671 5672 5673 5673 5674 5674 5674 5674 5673 5673 5672 5672 5671 5671 5672 5672 5672 5671 5672 5673 5673 5674 5674 5674 5674 5674
5666 5665 5665 5664 5663 5663 5662 5662 5661 5660 5660 5661 5661 5661 5661 5662 5663 5663 5664 5664 5665 5665 5665 5665 5665 5665 5665 5664 5664 5664 5664 5664 5664 5663 5663 5664 5665 5666 5666 5666 5666 5666
5655 5655 5655 5655 5654 5654 5654 5653 5652 5651 5651 5651 5651 5652 5653 5653 5653 5654 5654 5655 5656 5656 5656 5656 5656 5656 5656 5656 5656 5656 5657 5656 5656 5655 5656 5657 5658 5658 5658 5658 5658 5658
5646 5646 5646 5645 5644 5644 5644 5644 5643 5643 5642 5642 5642 5643 5643 5643 5643 5644 5644 5645 5646 5646 5647 5647 5647 5647 5647 5647 5647 5648 5648 5648 5648 5648 5648 5650 5650 5650 5650 5650 5650 5651
5636 5636 5636 5635 5635 5635 5635 5634 5634 5634 5633 5633 5633 5633 5633 5633 5633 5633 5633 5634 5635 5636 5637 5637 5638 5638 5638 5638 5638 5639 5639 5639 5640 5640 5640 5641 5642 5642 5642 5642 5642 5643
5627 5626 5626 5625 5625 5624 5624 5624 5624 5624 5624 5624 5624 5623 5622 5623 5622 5622 5622 5623 5624 5625 5626 5627 5628 5628 5628 5629 5630 5630 5630 5630 5630 5630 5630 5631 5632 5633 5633 5633 5633 5634
5617 5616 5616 5615 5615 5614 5613 5613 5613 5613 5613 5613 5613 5613 5613 5612 5612 5612 5613 5613 5614 5614 5615 5616 5617 5617 5618 5618 5619 5620 5620 5620 5620 5620 5620 5621 5622 5623 5623 5622 5623 5624
5607 5606 5606 5605 5605 5604 5603 5603 5602 5602 5602 5601 5602 5602 5603 5603 5603 5603 5603 5604 5604 5604 5604 5604 5605 5606 5607 5608 5608 5609 5609 5610 5610 5609 5610 5611 5611 5612 5612 5611 5612 5613
5596 5596 5596 5595 5594 5593 5593 5592 5592 5591 5591 5591 5591 5591 5591 5592 5593 5593 5594 5594 5594 5593 5593 5594 5594 5595 5596 5596 5597 5597 5598 5598 5599 5599 5600 5600 5601 5601 5601 5601 5601 5603
5583 5583 5583 5583 5582 5581 5581 5581 5581 5580 5580 5580 5580 5580 5580 5580 5581 5582 5583 5583 5583 5583 5583 5583 5583 5584 5584 5585 5585 5585 5586 5586 5587 5588 5589 5590 5591 5591 5591 5590 5591 5593
5568 5569 5569 5569 5569 5569 5568 5567 5567 5568 5568 5569 5569 5570 5569 5569 5569 5570 5571 5571 5572 5573 5573 5573 5573 5573 5573 5573 5573 5573 5573 5574 5575 5576 5578 5579 5580 5581 5581 5581 5582 5583
5555 5555 5555 5555 5555 5555 5556 5555 5554 5554 5554 5555 5557 5558 5558 5558 5558 5558 5558 5559 5560 5560 5561 5561 5562 5562 5562 5561 5561 5561 5561 5561 5562 5563 5565 5567 5568 5570 5570 5571 5572 5574
5543 5543 5542 5542 5541 5541 5541 5541 5542 5541 5541 5541 5542 5543 5544 5544 5544 5545 5545 5546 5547 5548 5549 5550 5550 5551 5550 5549 5549 5549 5549 5549 5550 5550 5552 5555 5557 5558 5560 5561 5562 5564
5529 5529 5529 5529 5528 5528 5528 5528 5528 5528 5528 5528 5528 5528 5529 5529 5530 5530 5531 5532 5533 5535 5536 5537 5538 5539 5538 5537 5537 5537 5537 5537 5538 5538 5539 5541 5544 5547 5549 5550 5551 5553
5514 5515 5515 5515 5514 5514 5514 5514 5514 5514 5514 5514 5514 5514 5515 5515 5515 5516 5516 5517 5518 5520 5521 5522 5524 5524 5524 5524 5525 5525 5524 5525 5526 5527 5527 5528 5531 5534 5537 5538 5539 5541
5496 5496 5497 5498 5498 5499 5499 5500 5499 5499 5499 5499 5500 5500 5500 5500 5501 5501 5502 5502 5503 5505 5506 5507 5509 5510 5509 5510 5511 5511 5511 5511 5512 5514 5516 5518 5520 5522 5524 5527 5528 5529
5479 5478 5478 5478 5479 5480 5481 5483 5484 5484 5484 5483 5483 5484 5484 5485 5485 5486 5487 5488 5489 5490 5492 5493 5495 5495 5495 5496 5497 5497 5497 5497 5498 5500 5503 5505 5508 5510 5512 5514 5515 5517
5464 5464 5463 5462 5461 5461 5461 5463 5465 5467 5468 5468 5468 5468 5468 5469 5469 5470 5471 5472 5474 5475 5477 5480 5481 5481 5481 5482 5482 5483 5483 5483 5484 5487 5488 5491 5495 5497 5499 5501 5502 5504
5448 5448 5448 5446 5445 5444 5444 5445 5445 5446 5447 5449 5450 5452 5452 5453 5454 5454 5456 5457 5458 5460 5462 5465 5467 5467 5466 5468 5468 5469 5469 5469 5471 5473 5475 5478 5481 5483 5486 5488 5489 5491
5430 5430 5430 5429 5428 5427 5428 5428 5428 5429 5428 5428 5430 5432 5434 5436 5437 5438 5440 5442 5443 5444 5446 5450 5453 5452 5452 5453 5454 5454 5454 5455 5457 5460 5462 5464 5467 5470 5472 5474 5475 5478
5413 5412 5411 5411 5410 5409 5409 5410 5411 5412 5412 5411 5411 5412 5415 5417 5418 5420 5423 5425 5427 5429 5430 5433 5437 5438 5437 5438 5439 5438 5439 5441 5443 5445 5448 5451 5454 5456 5458 5460 5462 5464
5397 5395 5394 5393 5392 5391 5390 5391 5392 5393 5394 5394 5394 5395 5397 5398 5399 5401 5405 5407 5409 5411 5413 5416 5421 5423 5422 5422 5424 5424 5424 5426 5428 5430 5434 5437 5440 5442 5443 5445 5448 5451
5383 5380 5378 5376 5375 5374 5373 5373 5374 5374 5374 5375 5375 5377 5379 5380 5381 5382 5386 5390 5392 5393 5395 5398 5403 5407 5408 5407 5408 5409 5409 5411 5413 5416 5420 5425 5426 5428 5430 5432 5436 5438
5369 5366 5364 5361 5359 5357 5356 5356 5356 5356 5356 5357 5357 5358 5360 5362 5364 5365 5367 5372 5375 5376 5378 5380 5384 5389 5392 5391 5391 5393 5394 5395 5397 5401 5407 5410 5411 5414 5417 5420 5423 5426